Wind_Speed
23 24 23 23 24 25 27 28 30 30 30 30 30 29 28 28 28 29 29 30 30 31 31 32 32 33 34 36 37 38 39 40 40 41 41 42 43 43 43 44 44 45 45 46
23 23 23 22 22 24 25 27 29 30 30 31 31 31 30 30 30 30 30 31 31 32 32 32 33 34 35 36 37 38 39 40 41 41 41 42 43 43 43 43 44 45 46 46
24 24 24 23 22 22 24 25 27 27 28 30 30 29 30 30 30 30 31 32 32 33 33 33 34 34 36 36 38 39 40 41 41 41 41 41 42 42 42 43 44 45 46 47
26 26 26 24 24 25 25 25 26 26 27 27 28 28 29 29 30 31 31 32 33 34 34 34 35 36 36 37 38 39 40 41 41 41 40 41 41 41 42 43 44 45 46 48
25 27 26 24 23 24 26 26 27 26 26 27 27 28 28 29 30 31 32 32 33 34 35 36 36 37 37 38 39 39 40 41 40 40 40 41 42 43 43 44 45 46 46 46
24 25 26 24 23 24 25 26 26 27 28 29 29 30 29 29 30 30 31 32 33 34 35 36 38 38 39 39 40 40 40 40 41 41 42 42 43 44 44 44 45 45 45 45
25 26 26 24 24 25 25 26 26 27 28 29 30 31 31 31 31 32 32 33 33 34 35 37 38 39 39 40 40 40 41 41 42 43 43 44 44 45 45 45 44 44 44 45
26 27 25 25 25 25 26 26 27 28 29 30 31 31 32 32 32 32 33 34 34 35 36 37 37 38 39 40 40 41 41 42 43 43 44 44 45 45 45 45 45 44 44 44
25 25 25 26 27 27 28 29 30 30 31 31 32 32 32 32 32 33 34 34 35 35 36 37 38 38 39 39 40 41 42 43 43 44 44 44 44 44 44 44 44 44 45 45
25 24 25 26 27 29 30 30 31 31 32 32 32 32 32 33 33 34 34 35 36 36 37 37 38 38 39 39 40 41 42 43 43 43 44 44 44 43 43 43 43 44 44 44
25 25 26 27 28 29 29 30 30 31 32 32 32 33 34 34 35 35 36 36 37 37 37 38 38 38 38 39 40 40 41 41 41 41 42 42 42 42 42 42 43 43 43 43
26 26 27 28 29 29 29 29 30 30 31 31 31 32 33 34 34 35 36 36 36 37 37 37 37 37 37 38 38 39 39 39 40 40 40 41 41 41 41 41 42 42 42 42
26 27 28 28 28 28 29 29 30 30 30 30 31 32 32 33 33 34 34 35 35 35 35 36 36 36 37 37 38 38 39 39 39 39 39 40 40 40 40 41 41 41 41 41
26 27 28 29 29 29 29 29 29 30 30 31 31 32 32 32 33 34 34 34 35 35 35 36 36 36 36 36 37 38 38 39 39 39 39 39 40 40 40 40 40 40 41 41
27 28 28 29 29 29 29 30 30 30 30 31 31 32 32 32 34 34 35 35 35 36 36 35 35 36 36 37 37 38 38 38 38 38 39 39 39 39 40 40 40 40 40 40
28 28 29 29 29 29 29 29 29 29 30 30 30 31 31 32 33 34 35 35 35 35 35 35 35 36 36 37 37 37 37 37 37 38 39 40 40 40 40 39 39 39 39 39
26 26 27 27 27 27 27 28 28 28 29 29 30 31 31 32 33 33 34 34 34 34 34 34 35 35 35 35 35 35 36 36 37 38 39 39 39 39 39 39 39 39 39 38
25 25 25 25 26 26 26 27 28 28 29 29 30 31 31 32 33 33 33 33 33 33 33 33 33 33 34 34 35 35 36 36 37 37 38 38 38 38 38 38 38 38 38 38
23 23 23 24 25 25 26 26 27 28 29 30 30 31 31 32 32 32 32 32 32 33 33 33 33 33 33 34 34 34 35 35 36 37 37 37 37 37 37 37 37 36 36 36
22 22 23 23 24 25 26 27 28 29 30 30 30 31 32 32 32 32 32 32 32 32 32 32 32 32 33 33 34 34 34 35 35 35 36 36 35 35 35 35 35 35 35 35
21 22 23 24 25 25 26 27 28 29 29 30 30 30 31 31 31 31 31 31 31 31 31 31 32 32 32 33 33 34 34 34 34 35 34 34 34 33 33 33 33 33 33 33
21 22 22 23 24 25 26 27 27 28 28 29 29 29 29 29 29 29 29 29 29 30 30 30 31 32 32 33 33 34 34 34 34 34 34 33 33 32 32 32 32 32 32 32
22 22 23 24 24 25 26 27 27 28 28 28 28 28 28 28 28 28 28 28 28 29 29 30 31 31 32 32 33 33 33 33 34 34 34 33 33 32 32 32 32 32 32 32
23 24 24 25 26 26 27 27 28 28 28 28 28 28 28 28 28 28 27 27 28 29 29 30 30 31 31 32 32 32 33 33 33 33 33 33 32 32 32 32 32 32 32 31
24 25 25 26 27 27 28 28 28 28 28 27 27 27 27 27 27 27 27 28 28 29 29 30 30 31 31 31 31 32 32 32 32 32 32 31 31 31 31 31 31 31 31 31
25 26 27 27 28 28 28 28 27 27 26 26 26 26 26 26 26 26 27 28 28 28 29 29 30 30 30 30 30 31 31 31 31 31 30 30 30 30 30 30 30 30 30 29
26 27 27 28 27 27 27 27 26 26 25 25 25 25 25 26 26 27 27 27 28 28 28 29 29 29 29 30 30 30 30 30 29 29 29 29 29 30 30 30 30 29 29 28
Wind_Direction
266 264 267 265 262 262 262 262 264 264 264 266 268 270 269 269 270 270 270 271 272 272 272 271 271 272 272 272 272 272 273 274 275 275 276 276 276 276 276 277 276 276 277 277
267 266 266 266 265 264 262 264 266 266 266 266 268 270 271 271 271 271 271 271 272 273 273 273 274 274 274 274 273 274 274 275 275 276 276 276 276 277 277 277 277 277 278 279
269 268 268 266 267 268 269 268 267 268 269 269 270 272 273 271 271 272 272 273 273 273 274 275 275 275 276 276 275 275 274 275 276 276 276 276 277 277 277 278 279 280 280 280
272 269 268 269 269 268 268 270 270 270 270 271 272 273 273 272 272 273 274 275 274 274 275 276 276 277 277 277 277 276 276 276 276 277 277 278 278 278 278 279 280 280 281 281
272 271 269 271 273 272 272 270 270 270 271 272 274 275 275 276 276 275 275 276 276 277 277 277 278 279 279 279 278 278 278 277 277 277 277 278 278 278 279 280 280 280 281 281
273 274 272 273 273 273 273 273 271 270 272 274 276 278 278 278 279 279 279 279 279 279 279 279 279 280 280 280 279 279 279 279 278 278 278 278 279 280 281 281 281 281 282 282
272 272 274 276 274 273 274 274 274 274 274 276 277 279 280 280 280 280 280 280 280 280 281 282 281 281 281 281 281 280 280 280 280 280 280 280 281 281 281 281 281 282 283 283
272 271 275 275 275 274 274 274 275 276 276 277 279 280 281 281 281 281 280 280 280 281 281 282 282 281 281 280 280 280 281 281 281 281 281 281 281 281 281 281 281 282 283 283
273 272 272 272 273 273 274 274 274 276 277 278 280 281 281 281 280 280 281 281 282 282 281 281 282 281 280 280 281 281 282 282 282 281 281 282 282 281 281 281 281 282 283 283
274 272 272 272 272 273 274 275 276 277 278 279 279 280 281 281 280 280 281 281 282 283 282 282 282 282 282 282 283 284 284 283 282 282 282 282 282 282 281 281 282 283 283 283
277 275 274 273 274 274 275 276 277 277 278 279 279 280 281 282 282 282 282 283 283 283 283 282 282 282 283 284 285 285 285 284 283 283 283 283 282 282 282 282 282 283 282 282
279 277 276 275 276 277 277 277 277 278 279 280 280 281 282 283 284 284 285 284 283 283 283 283 283 284 285 286 286 286 286 285 284 284 283 283 283 283 282 282 283 283 283 283
282 280 278 279 278 278 279 279 280 280 281 282 282 282 283 284 285 286 286 287 286 285 285 285 285 285 285 285 285 286 286 285 284 284 284 283 283 283 283 283 283 283 283 283
285 284 281 280 279 280 280 281 281 281 282 283 283 284 285 285 285 286 286 287 286 286 286 286 285 285 285 285 286 286 286 286 285 285 284 284 283 283 283 283 283 283 283 283
285 286 285 282 280 280 281 281 282 282 283 283 284 285 286 286 286 286 287 287 287 287 287 286 285 285 285 286 286 287 287 286 285 285 285 285 284 284 284 284 284 284 284 284
285 285 285 283 282 281 281 282 282 283 284 284 285 286 287 287 287 287 288 288 288 288 287 286 286 286 287 287 288 288 288 287 286 285 285 285 284 284 284 284 284 283 284 284
286 285 284 284 283 282 282 282 283 284 286 286 286 287 288 289 290 290 290 290 290 289 288 287 287 288 288 289 289 289 289 289 288 287 287 287 286 285 285 284 284 283 283 284
288 286 286 287 286 283 282 283 285 286 288 288 289 289 289 290 291 292 292 291 291 290 289 289 289 290 290 290 291 291 291 290 290 290 289 289 288 287 286 285 284 284 284 284
289 287 287 289 289 288 287 287 287 288 289 290 290 291 291 292 293 293 293 292 291 290 290 290 291 291 291 292 292 292 292 292 293 292 291 291 289 288 287 286 285 284 284 285
291 291 290 291 293 292 291 289 289 290 291 291 292 292 293 293 293 294 293 292 291 291 291 292 292 292 292 292 293 294 294 295 295 295 294 292 291 290 289 288 286 285 285 285
293 294 295 295 294 295 294 292 292 292 292 293 294 294 294 294 294 294 294 293 293 293 294 294 293 293 293 294 294 295 295 296 296 296 295 294 293 291 290 289 288 287 287 287
296 297 298 299 298 298 299 298 297 295 295 296 296 297 296 296 296 296 295 295 296 296 296 296 296 295 295 295 295 296 296 297 297 296 296 295 293 292 291 290 289 289 288 288
297 299 300 300 301 302 301 301 301 299 298 298 298 298 298 298 298 298 297 298 298 299 299 299 298 298 297 297 297 297 297 297 297 297 296 295 293 292 291 290 290 289 289 288
298 300 301 302 303 304 304 304 304 303 301 300 300 300 301 300 299 299 299 300 301 301 301 301 301 300 300 300 299 299 299 299 299 298 297 295 294 293 292 291 290 289 289 288
299 300 301 302 303 304 305 305 305 304 303 302 301 302 302 302 301 301 302 303 303 303 303 303 302 302 302 302 301 302 302 301 301 300 298 297 295 294 294 293 292 290 289 288
300 301 302 303 303 304 305 306 305 304 304 303 303 302 302 302 303 303 304 304 305 305 305 304 305 305 304 304 304 304 304 304 303 302 300 298 297 296 295 294 293 291 290 288
300 301 303 304 304 305 305 306 305 305 305 304 304 303 303 304 304 304 304 304 305 305 306 306 307 307 306 306 306 306 306 306 306 304 303 301 300 298 297 295 293 292 290 288
Height
5582 5582 5582 5582 5583 5583 5583 5584 5584 5585 5585 5585 5584 5584 5584 5583 5583 5583 5582 5582 5581 5580 5579 5578 5577 5576 5575 5574 5573 5572 5571 5570 5568 5566 5565 5563 5561 5560 5558 5557 5555 5553 5552 5550
5575 5575 5574 5575 5575 5575 5575 5575 5575 5576 5577 5577 5576 5575 5575 5575 5574 5574 5573 5572 5571 5570 5569 5568 5567 5566 5565 5563 5562 5561 5560 5558 5556 5555 5553 5552 5550 5548 5547 5545 5543 5541 5539 5537
5568 5568 5567 5568 5569 5567 5567 5567 5567 5568 5569 5567 5567 5566 5566 5565 5565 5564 5563 5562 5561 5560 5559 5558 5557 5556 5554 5553 5551 5550 5548 5547 5545 5543 5542 5540 5538 5536 5535 5533 5531 5528 5526 5524
5560 5561 5560 5563 5561 5560 5559 5559 5559 5559 5559 5558 5558 5557 5557 5556 5555 5554 5553 5552 5551 5550 5549 5548 5546 5545 5543 5542 5540 5539 5537 5535 5533 5532 5530 5528 5526 5524 5522 5520 5518 5515 5513 5510
5553 5552 5552 5554 5554 5552 5551 5552 5551 5551 5550 5549 5549 5548 5548 5547 5546 5545 5543 5542 5541 5540 5538 5537 5536 5534 5532 5531 5529 5527 5525 5523 5522 5520 5518 5516 5514 5512 5510 5507 5505 5502 5500 5497
5545 5544 5545 5547 5546 5544 5544 5544 5543 5542 5541 5541 5540 5540 5540 5538 5536 5535 5533 5532 5531 5529 5528 5526 5524 5523 5521 5519 5517 5515 5513 5511 5510 5508 5506 5504 5502 5499 5497 5494 5491 5489 5486 5484
5538 5537 5537 5539 5537 5537 5537 5537 5534 5533 5532 5532 5531 5531 5530 5528 5526 5525 5523 5522 5521 5519 5517 5515 5513 5511 5509 5507 5505 5503 5501 5499 5497 5495 5493 5491 5489 5486 5484 5481 5479 5476 5474 5471
5531 5530 5533 5530 5529 5529 5528 5527 5525 5524 5523 5522 5521 5520 5519 5518 5516 5515 5513 5512 5510 5508 5506 5504 5502 5500 5498 5496 5493 5491 5489 5487 5485 5482 5480 5478 5475 5473 5470 5468 5466 5463 5460 5458
5524 5525 5523 5522 5521 5520 5519 5518 5517 5515 5514 5513 5512 5511 5509 5508 5506 5505 5503 5501 5499 5497 5495 5493 5490 5488 5486 5483 5481 5478 5476 5474 5471 5469 5466 5464 5462 5459 5457 5455 5452 5450 5447 5444
5516 5516 5515 5513 5512 5511 5510 5509 5508 5506 5505 5503 5502 5501 5499 5498 5496 5494 5492 5490 5488 5486 5484 5481 5479 5476 5474 5471 5469 5466 5464 5461 5458 5456 5453 5451 5448 5446 5444 5442 5439 5436 5434 5431
5508 5508 5506 5505 5504 5502 5501 5499 5498 5497 5495 5494 5492 5491 5489 5487 5486 5484 5481 5479 5477 5475 5472 5470 5467 5465 5462 5459 5457 5454 5451 5448 5445 5443 5440 5438 5435 5433 5431 5428 5426 5423 5421 5418
5501 5499 5497 5497 5495 5493 5491 5490 5489 5487 5486 5484 5482 5481 5479 5477 5475 5472 5470 5467 5465 5463 5461 5458 5456 5453 5450 5447 5445 5442 5439 5436 5433 5431 5428 5425 5423 5420 5418 5416 5413 5410 5407 5405
5492 5490 5489 5487 5486 5484 5482 5480 5479 5477 5476 5474 5472 5471 5469 5466 5464 5462 5459 5456 5454 5451 5449 5446 5444 5441 5438 5436 5433 5430 5427 5424 5421 5418 5416 5413 5410 5408 5405 5403 5400 5397 5394 5392
5483 5481 5480 5478 5477 5475 5473 5471 5470 5468 5466 5465 5463 5461 5458 5456 5454 5451 5448 5445 5443 5440 5437 5435 5432 5429 5427 5424 5421 5418 5415 5412 5409 5406 5403 5401 5398 5395 5393 5390 5388 5385 5382 5379
5475 5473 5471 5469 5467 5466 5464 5462 5461 5459 5457 5455 5453 5451 5448 5446 5443 5440 5438 5435 5432 5429 5426 5423 5420 5418 5415 5412 5409 5406 5403 5400 5397 5394 5391 5388 5386 5383 5380 5377 5375 5372 5369 5367
5466 5464 5462 5460 5458 5457 5455 5453 5452 5450 5448 5446 5443 5441 5438 5436 5433 5430 5427 5424 5421 5418 5415 5412 5409 5406 5404 5401 5398 5394 5391 5388 5385 5382 5379 5376 5373 5370 5367 5364 5362 5359 5357 5354
5458 5456 5454 5452 5450 5448 5446 5445 5443 5441 5439 5436 5434 5431 5429 5426 5423 5419 5416 5413 5410 5407 5404 5401 5398 5395 5392 5389 5386 5383 5379 5376 5373 5369 5366 5363 5359 5357 5354 5351 5349 5346 5344 5341
5449 5448 5446 5444 5442 5440 5438 5436 5434 5432 5430 5427 5424 5421 5419 5416 5413 5409 5406 5403 5399 5396 5393 5390 5387 5384 5381 5378 5375 5372 5368 5365 5361 5357 5354 5350 5347 5344 5341 5338 5336 5333 5331 5328
5442 5440 5438 5436 5434 5432 5429 5427 5425 5423 5420 5418 5415 5412 5409 5406 5402 5399 5396 5393 5389 5386 5383 5380 5377 5374 5371 5367 5364 5361 5357 5353 5349 5345 5341 5338 5334 5331 5328 5326 5323 5320 5318 5316
5435 5433 5431 5429 5427 5424 5422 5419 5417 5414 5411 5409 5405 5402 5399 5396 5392 5389 5385 5382 5379 5375 5372 5369 5366 5363 5360 5357 5353 5350 5346 5342 5338 5334 5330 5326 5323 5319 5316 5313 5311 5308 5306 5303
5428 5426 5424 5421 5419 5416 5414 5411 5408 5405 5402 5399 5396 5393 5389 5386 5382 5379 5375 5372 5368 5365 5362 5359 5356 5353 5349 5346 5342 5339 5335 5331 5327 5323 5319 5315 5311 5308 5305 5302 5299 5297 5294 5292
5421 5419 5417 5414 5411 5408 5406 5402 5399 5396 5393 5390 5387 5383 5380 5376 5372 5369 5365 5362 5359 5355 5352 5349 5345 5342 5339 5335 5331 5328 5324 5320 5316 5312 5308 5304 5300 5297 5294 5291 5288 5285 5283 5280
5414 5412 5409 5407 5404 5401 5398 5394 5391 5388 5385 5381 5378 5374 5371 5367 5363 5360 5357 5353 5349 5346 5342 5339 5335 5332 5328 5324 5320 5317 5313 5309 5305 5301 5297 5293 5289 5286 5283 5280 5277 5274 5272 5269
5407 5404 5402 5399 5396 5393 5390 5386 5383 5379 5376 5373 5369 5365 5362 5358 5355 5351 5347 5344 5340 5337 5333 5329 5325 5322 5318 5314 5310 5306 5302 5298 5294 5290 5286 5282 5278 5275 5272 5269 5266 5263 5261 5258
5399 5397 5394 5391 5388 5385 5382 5378 5374 5371 5367 5364 5360 5357 5353 5350 5346 5343 5339 5335 5332 5328 5324 5320 5316 5312 5308 5304 5300 5296 5292 5288 5283 5279 5275 5271 5268 5265 5261 5258 5255 5253 5250 5247
5391 5389 5386 5383 5380 5377 5373 5370 5366 5363 5359 5355 5352 5348 5345 5341 5338 5334 5330 5327 5323 5319 5315 5311 5307 5303 5298 5294 5290 5286 5282 5278 5274 5269 5265 5262 5258 5255 5251 5248 5245 5242 5239 5237
5383 5381 5378 5375 5371 5368 5365 5362 5358 5355 5351 5347 5344 5340 5337 5333 5329 5326 5322 5318 5314 5310 5306 5302 5298 5294 5290 5285 5281 5277 5273 5269 5265 5260 5256 5252 5249 5245 5242 5238 5235 5232 5229 5227